General Aviation Weather

Text Reports

Enter one or more of the following location identifiers separated by a space:

Zip Code, Four-Character ICAO or Three-Character IATA airport codes.

METAR - Aviation Routine Weather Report
KOXB - Ocean City, Maryland
Updated at 2:53 PM GMT on September 17, 2014 (10:53 AM EDT):
METAR KOXB 171453Z AUTO 05010KT 10SM CLR 22/12 A3004 RMK AO2 SLP171 T02220117 50000 TSNO $
TAF - Terminal Area Forecast
KOXB - Ocean City, Maryland
Updated at 2:53 PM GMT on September 17, 2014 (10:53 AM EDT):
No TAF is currently available for this location.
Decoded:
No decoded TAF is available.
PIREP - Pilot Weather Report
KOXB - Ocean City, Maryland
Updated at 2:53 PM GMT on September 17, 2014 (10:53 AM EDT):
No PIREP is currently available for this location.
AIRMET - Airmens Meteorological Information
KOXB - Ocean City, Maryland
Updated at 2:53 PM GMT on September 17, 2014 (10:53 AM EDT):
No AIRMET is currently available for this location.
SIGMET - Significant Meteorological Information
KOXB - Ocean City, Maryland
Updated at 2:53 PM GMT on September 17, 2014 (10:53 AM EDT):
No SIGMET is currently available for this location.
NOTAM - Notice to Airmen
KOXB - Ocean City, Maryland
Updated at 2:53 PM GMT on September 17, 2014 (10:53 AM EDT):
No NOTAM is currently available for this location.
Forecast Area
KOXB - Ocean City, Maryland
Updated at 2:53 PM GMT on September 17, 2014 (10:53 AM EDT):
No NOTAM is currently available for this location.
Aviation Weather Maps